Погода в Любашевке

Погода в Любашевке : погода сейчас, прогноз погоды и архив. Всё, что Вы хотите узнать о погоде в Любашевке!

Хотите узнать прогноз погоды в Любашевке? Тогда Вам сюда: Погода в Любашевке

Поиск расширенной информации на нашем сайте:

Полезная информация: Схемы вышивки рушника на иконы.

Другие новости

Новости СМИ2

Главная страница сайта

Новости сайта

03.07.2017

Напоминаем, что на нашем специализированном сайте Метеоцентр.Азия вы можете получить высокодетализированные автоматические прогнозы погоды по пунктам России, СНГ и мира в авиационном формате (включающие направление и скорость ветра, видимость, явления погоды, количество и форму облачности, нижнюю и верхнюю границу облачности).

Рекомендуем: Официальный сайт янган-тау yangantau.putevka-perm.ru.

Погода в Любашевке - сегодня

Время (UTC), дата Ветер
(°,м/с) 
Видим.   Явления Облачность Т
(°С)
Тd
(°С)
f(%) Тe
(°С)
Pmin
(гПа)
dP
(гПа)
Po
(мм)
O2
(г/м3)
Тmin Tmax R s Состояние
почвы
21 19.07.17 тихо ()   20000 м    ясно 
+18.6 +11.3 62 +22  1017.1  747  280           
00 20.07.17 тихо ()   20000 м    ясно 
+16.6 +11 69 +19  1016.5  -0.7  746  281           
03 20.07.17 тихо ()   20000 м    ясно 
+16.2 +11.8 75 +20  1016.5  746  282           
06 20.07.17 140 (ЮВ) 20000 м    1/0 верхняя 
[Ci fib]
+22.9 +11.8 50 +27  1016.2  0.2  746  275  +15.8         
09 20.07.17 300 (СЗ) 20000 м    3/1 1000 м верхняя 
[Cu hum|Ci fib]
+28.1 +12.6 38 +33  1014.8  -1  746  270           
12 20.07.17 340 (С) 20000 м    6/4 600 м кучево-дожд., верхняя 
[Cb calv|Ci fib]
+30.1 +10.7 30 +32  1013.3  -1.4  745  268           
15 20.07.17 110 (В) 20000 м    8/3 600 м кучево-дожд., средняя, верхняя 
[Cb calv|Ac trans|Ci fib]
+29.7 +11.2 32 +33  1012.4  -0.9  744  268           
18 20.07.17 тихо ()   20000 м    3/0 средняя, верхняя 
[Ac trans|Ci fib]
+25.7 +12.8 45 +31  1012.9  0.2  744  272    +31.2       
21 20.07.17 180 (Ю) 20000 м    ясно 
+21.9 +12.2 54 +26  1013.8  0.6  745  275           
00 21.07.17 200 (Ю) 20000 м    ясно 
+19.6 +11.9 61 +25  1014  0.1  745  278           
03 21.07.17 тихо ()   20000 м    ясно 
+18.3 +12.2 68 +23  1014.3  0.2  745  279           
06 21.07.17 240 (ЮЗ) 20000 м    ясно 
+26 +15.3 52 +35  1014.6  0.8  745  271  +18         
09 21.07.17 210 (ЮЗ) 20000 м    4/3 1000 м верхняя 
[Cu hum|Ci fib]
+30.5 +11.9 32 +34  1014.5  0.2  746  268           
12 21.07.17 200 (Ю) 20000 м    5/5 1000 м 
[Cu hum]
+32.7 +10.2 25 +34  1013.6  -0.7  745  266           
15 21.07.17 230 (ЮЗ) 20000 м    4/4 1000 м 
[Cu hum]
+31.8 +10.5 27 +34  1012.9  -0.8  744  267           
18 21.07.17 200 (Ю) 20000 м    ясно 
+27.4 +11.1 36 +30  1013.5  0.3  745  271           
21 21.07.17 230 (ЮЗ) 20000 м    ясно 
+23.5 +11.4 47 +27  1014.2  0.4  745  274           
00 22.07.17 250 (З) 20000 м    ясно 
+21.4 +11.5 53 +25  1013.9  -0.4  745  276           
03 22.07.17 200 (Ю) 20000 м    ясно 
+19.5 +12 62 +25  1013.7  -0.3  744  278           
06 22.07.17 240 (ЮЗ) 20000 м    ясно 
+26 +12.6 43 +31  1014  0.7  745  272  +19.4  +3.6       
09 22.07.17 210 (ЮЗ) 20000 м    1/0 средняя 
[Ac trans]
+30.9 +10 27 +32  1013.2  -0.4  745  268           
12 22.07.17 210 (ЮЗ) 20000 м    3/1 1000 м средняя, верхняя 
[Cu med, cong|Ac trans|Cc]
+33 +8.6 22 +33  1011.8  -1.3  743  266           
15 22.07.17 340 (С) 20000 м  гроза без осадков  10/8 300 м кучево-дожд., средняя 
[Cb cap|As op]
+26.9 +15.7 50 +37  1012.6  0.4  744  270           
18 22.07.17 270 (З) 6000 м  дымка{гроза, ливн. осадки}  9/4 300 м кучево-дожд., средняя, верхняя 
[Cb cap|Ac cuf|Ci ing]
+23 +20.7 87 +44  1013  0.2  744  271    +33.6     
21 22.07.17 340 (С) 10 км  {гроза}  ясно 
+21 +18.3 85 +36  1014.2  745  274           
Время (UTC), дата Ветер
(°,м/с) 
Видим.   Явления Облачность Т
(°С)
Тd
(°С)
f(%) Тe
(°С)
Pmin
(гПа)
dP
(гПа)
Po
(мм)
O2
(г/м3)
Тmin Tmax R s Состояние
почвы

Для получения пояснительной информации подведите курсор к названию столбца.

ПОГОДА в Любашевке - архив

Всё, что Вы хотите узнать о погоде в Любашевке - удобно и подробно!

Выберите нужную дату (начиная с 1 января 2015* года) и нажмите кнопку "Найти".
Будут отображены архивные сводки погоды по пункту Любашевка, начиная с указанной даты.


Отображать данные в формате CSV (для использования в таблицах Excel)


Внимание! Наш архив погоды предназначен исключительно для личного некоммерческого использования в познавательных целях. Если Вам необходимы официальные справки о состоянии погоды (для производственных, юридических, коммерческих и т.п. целей), обращайтесь в органы Росгидромета.

*Примечание: данная дата относится к архиву по метеостанциям СССР (Россия, СНГ, Балтия).
Архив по метеостанциям Зарубежной Европы и Азии (кроме Китая) хранится 10 дней, по другим регионам земного шара (Китай, Африка, Америка, Австралия, Океания) - 1 день.

Любашевка - район местоположения метеостанции


Название, широта, долгота, высота метеостанции:
Любашевка 47.9°ш. 30.3°д. 183 м над ур. моря [Украина]

Дополнительная информация

В oтличие oт бoльшинства пoгoдных сайтoв мы публикуем пoдрoбную метеoинфoрмацию в детальнoм прoфессиoнальнoм фoрмате.

Характеристики температуры и влажнoсти вoздуха измеряются на высoте 2 м в тени вдали oт зданий и деревьев.
Скoрoсть ветра измеряется на высoте 10 м (на урoвне рoста челoвека скoрoсть ветра ниже в 1.5-2 раза). Если метеoстанция нахoдится в гoрoде или в лесу, тo скoрoсть ветра занижена на 2-4 м/с пo сравнению с oткрытым местoм. Скoрoсть ветра над акватoриями крупных рек и oзёр, а также на вершинах хoлмoв на 2-5 м/с выше, чем в oбычных услoвиях.
Атмoсфернoе давление в разных тoчках местнoсти мoжет значительнo oтличаться oт давления на метеoстанции, в зависимoсти oт услoвий рельефа (при пoдъёме на 10 м давление пoнижается примернo на 1 мм рт.ст.).